Time,TemperatureF,DewpointF,PressureIn,WindDirection,WindDirectionDegrees,WindSpeedMPH,WindSpeedGustMPH,Humidity,HourlyPrecipIn,Conditions,Clouds,dailyrainin,SoftwareType,DateUTC
2013-07-22 00:00:00,72.0,60.8,29.94,North,-999,0.0,0.0,68,0.00,,,-99.99,FreeWX 2.04,2013-07-22 04:00:00,
2013-07-22 00:10:00,72.0,61.2,29.94,North,-999,0.0,0.0,69,0.00,,,-99.99,FreeWX 2.04,2013-07-22 04:10:00,
2013-07-22 00:20:00,72.0,61.2,29.94,North,-999,0.0,0.0,69,0.00,,,-99.99,FreeWX 2.04,2013-07-22 04:20:00,
2013-07-22 00:30:00,72.1,61.3,29.94,North,-999,0.0,0.0,69,0.00,,,-99.99,FreeWX 2.04,2013-07-22 04:30:00,
2013-07-22 00:40:00,72.1,61.3,29.94,North,-999,0.0,0.0,69,0.00,,,-99.99,FreeWX 2.04,2013-07-22 04:40:00,
2013-07-22 00:50:00,72.1,61.3,29.94,North,-999,0.0,0.0,69,0.00,,,-99.99,FreeWX 2.04,2013-07-22 04:50:00,
2013-07-22 01:00:00,72.1,61.3,29.94,North,-999,0.0,0.0,69,0.00,,,-99.99,FreeWX 2.04,2013-07-22 05:00:00,
2013-07-22 01:10:00,72.1,61.3,29.94,North,-999,0.0,0.0,69,0.00,,,-99.99,FreeWX 2.04,2013-07-22 05:10:00,
2013-07-22 01:20:00,72.0,61.2,29.94,North,-999,0.0,0.0,69,0.00,,,-99.99,FreeWX 2.04,2013-07-22 05:20:00,
2013-07-22 01:30:00,72.0,61.2,29.94,North,-999,0.0,0.0,69,0.00,,,-99.99,FreeWX 2.04,2013-07-22 05:30:00,
2013-07-22 01:40:00,71.8,61.0,29.94,North,-999,0.0,0.0,69,0.00,,,-99.99,FreeWX 2.04,2013-07-22 05:40:00,
2013-07-22 01:50:00,71.8,61.0,29.94,North,-999,0.0,3.1,69,0.00,,,-99.99,FreeWX 2.04,2013-07-22 05:50:00,
2013-07-22 02:00:00,71.8,61.0,29.94,North,-999,0.0,0.0,69,0.00,,,-99.99,FreeWX 2.04,2013-07-22 06:00:00,
2013-07-22 02:10:00,71.6,60.8,29.91,North,-999,0.0,0.0,69,0.00,,,-99.99,FreeWX 2.04,2013-07-22 06:10:00,
2013-07-22 02:20:00,71.6,61.3,29.91,North,-999,0.0,0.0,70,0.00,,,-99.99,FreeWX 2.04,2013-07-22 06:20:00,
2013-07-22 02:30:00,71.4,61.2,29.91,North,-999,0.0,0.0,70,0.00,,,-99.99,FreeWX 2.04,2013-07-22 06:30:00,
2013-07-22 02:40:00,71.4,61.2,29.91,North,-999,0.0,0.0,70,0.00,,,-99.99,FreeWX 2.04,2013-07-22 06:40:00,
2013-07-22 02:50:00,71.2,60.6,29.91,North,-999,0.0,0.0,69,0.00,,,-99.99,FreeWX 2.04,2013-07-22 06:50:00,
2013-07-22 03:00:00,71.2,61.0,29.91,North,-999,0.0,0.0,70,0.00,,,-99.99,FreeWX 2.04,2013-07-22 07:00:00,
2013-07-22 03:10:00,71.2,61.0,29.91,North,-999,0.0,3.1,70,0.00,,,-99.99,FreeWX 2.04,2013-07-22 07:10:00,
2013-07-22 03:20:00,71.2,61.0,29.91,North,-999,0.0,0.0,70,0.00,,,-99.99,FreeWX 2.04,2013-07-22 07:20:00,
2013-07-22 03:30:00,71.2,61.0,29.91,North,-999,0.0,0.0,70,0.00,,,-99.99,FreeWX 2.04,2013-07-22 07:30:00,
2013-07-22 03:40:00,71.2,61.0,29.91,North,-999,0.0,3.6,70,0.00,,,-99.99,FreeWX 2.04,2013-07-22 07:40:00,
2013-07-22 03:50:00,71.2,61.3,29.88,North,-999,0.0,3.1,71,0.00,,,-99.99,FreeWX 2.04,2013-07-22 07:50:00,
2013-07-22 04:00:00,71.1,61.2,29.88,North,-999,0.0,0.0,71,0.00,,,-99.99,FreeWX 2.04,2013-07-22 08:00:00,
2013-07-22 04:11:00,71.1,61.2,29.88,North,-999,0.0,3.1,71,0.00,,,-99.99,FreeWX 2.04,2013-07-22 08:11:00,
2013-07-22 04:21:00,71.1,61.2,29.88,North,-999,0.0,3.1,71,0.00,,,-99.99,FreeWX 2.04,2013-07-22 08:21:00,
2013-07-22 04:31:00,71.1,61.2,29.88,North,-999,0.0,0.0,71,0.00,,,-99.99,FreeWX 2.04,2013-07-22 08:31:00,
2013-07-22 04:41:00,71.1,61.2,29.88,North,-999,0.0,0.0,71,0.00,,,-99.99,FreeWX 2.04,2013-07-22 08:41:00,
2013-07-22 04:51:00,71.1,61.5,29.88,North,-999,0.0,0.0,72,0.00,,,-99.99,FreeWX 2.04,2013-07-22 08:51:00,
2013-07-22 05:01:00,71.2,61.7,29.88,North,-999,0.0,0.0,72,0.00,,,-99.99,FreeWX 2.04,2013-07-22 09:01:00,
2013-07-22 05:11:00,71.1,61.5,29.88,North,-999,0.0,3.6,72,0.00,,,-99.99,FreeWX 2.04,2013-07-22 09:11:00,
2013-07-22 05:21:00,71.1,61.5,29.88,North,-999,0.0,0.0,72,0.00,,,-99.99,FreeWX 2.04,2013-07-22 09:21:00,
2013-07-22 05:31:00,71.1,61.5,29.88,North,-999,0.0,0.0,72,0.00,,,-99.99,FreeWX 2.04,2013-07-22 09:31:00,
2013-07-22 05:41:00,71.2,62.1,29.88,North,-999,0.0,0.0,73,0.00,,,-99.99,FreeWX 2.04,2013-07-22 09:41:00,
2013-07-22 05:51:00,71.2,62.1,29.88,North,-999,0.0,0.0,73,0.00,,,-99.99,FreeWX 2.04,2013-07-22 09:51:00,
2013-07-22 06:01:00,71.1,61.9,29.88,North,-999,0.0,0.0,73,0.00,,,-99.99,FreeWX 2.04,2013-07-22 10:01:00,
2013-07-22 06:11:00,71.1,61.9,29.88,North,-999,0.0,0.0,73,0.00,,,-99.99,FreeWX 2.04,2013-07-22 10:11:00,
2013-07-22 06:21:00,71.2,62.1,29.88,North,-999,0.0,0.0,73,0.00,,,-99.99,FreeWX 2.04,2013-07-22 10:21:00,
2013-07-22 06:31:00,71.2,62.1,29.88,North,-999,0.0,3.1,73,0.00,,,-99.99,FreeWX 2.04,2013-07-22 10:31:00,
2013-07-22 06:42:00,71.2,62.1,29.88,North,-999,0.0,0.0,73,0.00,,,-99.99,FreeWX 2.04,2013-07-22 10:42:00,
2013-07-22 06:52:00,71.2,62.6,29.88,North,-999,0.0,0.0,74,0.00,,,-99.99,FreeWX 2.04,2013-07-22 10:52:00,
2013-07-22 07:02:00,71.4,62.6,29.88,North,-999,0.0,0.0,74,0.00,,,-99.99,FreeWX 2.04,2013-07-22 11:02:00,
2013-07-22 07:12:00,71.4,62.6,29.91,North,-999,0.0,0.0,74,0.00,,,-99.99,FreeWX 2.04,2013-07-22 11:12:00,
2013-07-22 07:22:00,71.6,62.8,29.88,North,-999,0.0,2.7,74,0.00,,,-99.99,FreeWX 2.04,2013-07-22 11:22:00,
2013-07-22 07:32:00,71.8,63.0,29.88,North,-999,0.0,0.0,74,0.00,,,-99.99,FreeWX 2.04,2013-07-22 11:32:00,
2013-07-22 07:42:00,72.0,63.7,29.91,North,-999,0.0,2.7,75,0.00,,,-99.99,FreeWX 2.04,2013-07-22 11:42:00,
2013-07-22 07:52:00,72.3,63.9,29.88,North,-999,0.0,4.0,75,0.00,,,-99.99,FreeWX 2.04,2013-07-22 11:52:00,
2013-07-22 08:02:00,72.9,64.4,29.88,North,-999,0.0,4.0,75,0.00,,,-99.99,FreeWX 2.04,2013-07-22 12:02:00,
2013-07-22 08:12:00,73.2,64.8,29.91,North,-999,0.0,4.5,75,0.00,,,-99.99,FreeWX 2.04,2013-07-22 12:12:00,
2013-07-22 08:22:00,73.2,64.0,29.91,North,-999,0.0,4.0,73,0.00,,,-99.99,FreeWX 2.04,2013-07-22 12:22:00,
2013-07-22 08:32:00,73.6,64.4,29.91,North,-999,0.0,4.5,73,0.00,,,-99.99,FreeWX 2.04,2013-07-22 12:32:00,
2013-07-22 08:42:00,73.9,64.4,29.91,North,354,1.0,4.9,72,0.00,,,-99.99,FreeWX 2.04,2013-07-22 12:42:00,
2013-07-22 08:53:00,74.1,62.8,29.91,North,356,2.0,6.7,68,0.00,,,-99.99,FreeWX 2.04,2013-07-22 12:53:00,
2013-07-22 09:03:00,74.7,63.3,29.91,North,-999,0.0,4.5,68,0.00,,,-99.99,FreeWX 2.04,2013-07-22 13:03:00,
2013-07-22 09:13:00,75.2,63.5,29.91,North,353,1.0,5.8,67,0.00,,,-99.99,FreeWX 2.04,2013-07-22 13:13:00,
2013-07-22 09:23:00,75.7,61.7,29.91,North,355,2.0,6.7,62,0.00,,,-99.99,FreeWX 2.04,2013-07-22 13:23:00,
2013-07-22 09:33:00,75.7,59.9,29.91,North,7,1.0,5.4,58,0.00,,,-99.99,FreeWX 2.04,2013-07-22 13:33:00,
2013-07-22 09:43:00,75.9,58.6,29.91,North,356,1.0,5.8,55,0.00,,,-99.99,FreeWX 2.04,2013-07-22 13:43:00,
2013-07-22 09:53:00,77.2,59.7,29.91,North,350,1.0,7.4,55,0.00,,,-99.99,FreeWX 2.04,2013-07-22 13:53:00,
2013-07-22 10:03:00,77.9,57.2,29.91,North,351,2.0,7.4,49,0.00,,,-99.99,FreeWX 2.04,2013-07-22 14:03:00,
2013-07-22 10:13:00,79.0,57.6,29.88,North,353,1.0,7.4,48,0.00,,,-99.99,FreeWX 2.04,2013-07-22 14:13:00,
2013-07-22 10:23:00,79.5,54.3,29.88,North,355,2.0,6.7,42,0.00,,,-99.99,FreeWX 2.04,2013-07-22 14:23:00,
2013-07-22 10:33:00,80.4,53.8,29.88,North,352,2.0,5.8,40,0.00,,,-99.99,FreeWX 2.04,2013-07-22 14:33:00,
2013-07-22 10:43:00,80.2,53.8,29.88,North,356,1.0,4.9,40,0.00,,,-99.99,FreeWX 2.04,2013-07-22 14:43:00,
2013-07-22 10:53:00,79.9,54.1,29.88,North,358,1.0,4.9,41,0.00,,,-99.99,FreeWX 2.04,2013-07-22 14:53:00,
2013-07-22 11:04:00,81.5,54.1,29.88,North,-999,0.0,5.4,39,0.00,,,-99.99,FreeWX 2.04,2013-07-22 15:04:00,
2013-07-22 11:14:00,81.9,53.1,29.88,North,351,2.0,9.2,37,0.00,,,-99.99,FreeWX 2.04,2013-07-22 15:14:00,
2013-07-22 11:24:00,82.8,51.4,29.88,North,349,1.0,6.7,34,0.00,,,-99.99,FreeWX 2.04,2013-07-22 15:24:00,
2013-07-22 11:34:00,82.2,51.1,29.88,NNW,348,2.0,8.3,34,0.00,,,-99.99,FreeWX 2.04,2013-07-22 15:34:00,
2013-07-22 11:44:00,81.3,52.5,29.88,North,358,1.0,6.9,37,0.00,,,-99.99,FreeWX 2.04,2013-07-22 15:44:00,
2013-07-22 11:54:00,81.7,53.6,29.88,North,-999,0.0,8.3,38,0.00,,,-99.99,FreeWX 2.04,2013-07-22 15:54:00,
2013-07-22 12:04:00,82.2,51.8,29.88,North,351,2.0,6.9,35,0.00,,,-99.99,FreeWX 2.04,2013-07-22 16:04:00,
2013-07-22 12:14:00,83.7,52.3,29.88,NNW,343,2.0,8.3,34,0.00,,,-99.99,FreeWX 2.04,2013-07-22 16:14:00,
2013-07-22 12:24:00,83.3,51.1,29.88,North,350,2.0,7.4,33,0.00,,,-99.99,FreeWX 2.04,2013-07-22 16:24:00,
2013-07-22 12:34:00,82.6,51.3,29.85,NNW,348,3.0,6.7,34,0.00,,,-99.99,FreeWX 2.04,2013-07-22 16:34:00,
2013-07-22 12:44:00,82.6,52.2,29.85,NNW,348,2.0,6.7,35,0.00,,,-99.99,FreeWX 2.04,2013-07-22 16:44:00,
2013-07-22 12:54:00,82.6,51.3,29.85,North,-999,0.0,6.3,34,0.00,,,-99.99,FreeWX 2.04,2013-07-22 16:54:00,
2013-07-22 13:04:00,81.5,52.0,29.85,North,-999,0.0,4.5,36,0.00,,,-99.99,FreeWX 2.04,2013-07-22 17:04:00,
2013-07-22 13:14:00,80.6,54.0,29.85,North,351,1.0,5.4,40,0.00,,,-99.99,FreeWX 2.04,2013-07-22 17:14:00,
2013-07-22 13:31:00,75.9,57.0,29.88,North,-999,0.0,7.8,52,0.31,,,-99.99,FreeWX 2.04,2013-07-22 17:31:00,
2013-07-22 13:41:00,75.4,58.1,29.85,North,-999,0.0,3.6,55,0.31,,,-99.99,FreeWX 2.04,2013-07-22 17:41:00,
2013-07-22 14:09:00,74.3,59.0,29.85,North,-999,0.0,0.0,59,0.35,,,-99.99,FreeWX 2.04,2013-07-22 18:09:00,
2013-07-22 14:19:00,74.1,61.5,29.85,North,357,2.0,6.7,65,0.24,,,-99.99,FreeWX 2.04,2013-07-22 18:19:00,
2013-07-22 14:29:00,73.9,62.2,29.85,North,-999,0.0,4.0,67,0.08,,,-99.99,FreeWX 2.04,2013-07-22 18:29:00,
2013-07-22 14:39:00,73.6,61.9,29.85,North,-999,0.0,3.6,67,0.12,,,-99.99,FreeWX 2.04,2013-07-22 18:39:00,
2013-07-22 14:49:00,73.2,61.2,29.85,North,-999,0.0,0.0,66,0.12,,,-99.99,FreeWX 2.04,2013-07-22 18:49:00,
2013-07-22 14:59:00,72.9,61.2,29.85,North,-999,0.0,0.0,67,0.20,,,-99.99,FreeWX 2.04,2013-07-22 18:59:00,
2013-07-22 15:20:00,72.3,61.2,29.85,North,-999,0.0,0.0,68,0.24,,,-99.99,FreeWX 2.04,2013-07-22 19:20:00,
2013-07-22 15:30:00,72.5,61.3,29.85,North,-999,0.0,0.0,68,0.20,,,-99.99,FreeWX 2.04,2013-07-22 19:30:00,
2013-07-22 15:40:00,72.3,61.2,29.82,North,-999,0.0,0.0,68,0.20,,,-99.99,FreeWX 2.04,2013-07-22 19:40:00,
2013-07-22 16:00:00,72.3,62.1,29.82,North,-999,0.0,0.0,70,0.28,,,-99.99,FreeWX 2.04,2013-07-22 20:00:00,
2013-07-22 16:10:00,73.2,62.8,29.82,North,-999,0.0,3.1,70,0.28,,,-99.99,FreeWX 2.04,2013-07-22 20:10:00,
2013-07-22 16:21:00,73.6,63.1,29.82,North,-999,0.0,0.0,70,0.24,,,-99.99,FreeWX 2.04,2013-07-22 20:21:00,
2013-07-22 16:31:00,73.2,62.4,29.82,North,-999,0.0,0.0,69,0.20,,,-99.99,FreeWX 2.04,2013-07-22 20:31:00,
2013-07-22 16:41:00,72.7,61.5,29.82,North,-999,0.0,0.0,68,0.20,,,-99.99,FreeWX 2.04,2013-07-22 20:41:00,
2013-07-22 16:51:00,72.7,61.9,29.82,North,-999,0.0,0.0,69,0.08,,,-99.99,FreeWX 2.04,2013-07-22 20:51:00,
2013-07-22 17:01:00,72.7,61.9,29.82,North,-999,0.0,0.0,69,0.04,,,-99.99,FreeWX 2.04,2013-07-22 21:01:00,
2013-07-22 17:11:00,72.3,61.5,29.82,North,-999,0.0,0.0,69,0.08,,,-99.99,FreeWX 2.04,2013-07-22 21:11:00,
2013-07-22 17:21:00,72.5,61.7,29.79,North,-999,0.0,0.0,69,0.12,,,-99.99,FreeWX 2.04,2013-07-22 21:21:00,
2013-07-22 17:31:00,73.4,63.3,29.79,North,-999,0.0,2.7,71,0.12,,,-99.99,FreeWX 2.04,2013-07-22 21:31:00,
2013-07-22 17:41:00,73.8,63.3,29.79,North,-999,0.0,0.0,70,0.12,,,-99.99,FreeWX 2.04,2013-07-22 21:41:00,
2013-07-22 17:51:00,73.6,62.8,29.79,North,-999,0.0,0.0,69,0.08,,,-99.99,FreeWX 2.04,2013-07-22 21:51:00,
2013-07-22 18:01:00,73.8,63.0,29.79,North,-999,0.0,0.0,69,0.08,,,-99.99,FreeWX 2.04,2013-07-22 22:01:00,
2013-07-22 18:11:00,73.9,63.1,29.82,North,-999,0.0,0.0,69,0.04,,,-99.99,FreeWX 2.04,2013-07-22 22:11:00,
2013-07-22 18:21:00,74.3,63.5,29.79,North,-999,0.0,0.0,69,0.00,,,-99.99,FreeWX 2.04,2013-07-22 22:21:00,
2013-07-22 18:31:00,74.3,63.5,29.79,North,-999,0.0,0.0,69,0.00,,,-99.99,FreeWX 2.04,2013-07-22 22:31:00,
2013-07-22 18:41:00,74.5,63.7,29.79,North,-999,0.0,0.0,69,0.00,,,-99.99,FreeWX 2.04,2013-07-22 22:41:00,
2013-07-22 18:51:00,74.7,63.9,29.79,North,-999,0.0,0.0,69,0.00,,,-99.99,FreeWX 2.04,2013-07-22 22:51:00,
2013-07-22 19:01:00,74.5,63.1,29.79,North,-999,0.0,0.0,68,0.00,,,-99.99,FreeWX 2.04,2013-07-22 23:01:00,
2013-07-22 19:11:00,74.7,63.9,29.79,North,-999,0.0,0.0,69,0.00,,,-99.99,FreeWX 2.04,2013-07-22 23:11:00,
2013-07-22 19:21:00,74.7,63.9,29.79,North,-999,0.0,0.0,69,0.00,,,-99.99,FreeWX 2.04,2013-07-22 23:21:00,
2013-07-22 19:31:00,74.7,63.9,29.79,North,-999,0.0,2.7,69,0.00,,,-99.99,FreeWX 2.04,2013-07-22 23:31:00,
2013-07-22 19:41:00,74.7,63.9,29.79,North,-999,0.0,4.0,69,0.00,,,-99.99,FreeWX 2.04,2013-07-22 23:41:00,
2013-07-22 19:51:00,74.5,63.1,29.79,North,-999,0.0,4.5,68,0.00,,,-99.99,FreeWX 2.04,2013-07-22 23:51:00,
2013-07-22 20:01:00,74.3,63.0,29.79,North,-999,0.0,0.0,68,0.00,,,-99.99,FreeWX 2.04,2013-07-23 00:01:00,
2013-07-22 20:11:00,73.9,62.8,29.79,North,-999,0.0,2.7,68,0.00,,,-99.99,FreeWX 2.04,2013-07-23 00:11:00,
2013-07-22 20:21:00,73.8,62.6,29.79,North,-999,0.0,0.0,68,0.00,,,-99.99,FreeWX 2.04,2013-07-23 00:21:00,
2013-07-22 20:31:00,73.6,62.8,29.79,North,-999,0.0,0.0,69,0.00,,,-99.99,FreeWX 2.04,2013-07-23 00:31:00,
2013-07-22 20:41:00,73.4,63.0,29.79,North,-999,0.0,0.0,70,0.00,,,-99.99,FreeWX 2.04,2013-07-23 00:41:00,
2013-07-22 20:51:00,73.0,62.6,29.79,North,-999,0.0,3.1,70,0.00,,,-99.99,FreeWX 2.04,2013-07-23 00:51:00,
2013-07-22 21:01:00,72.9,62.4,29.79,North,-999,0.0,0.0,70,0.00,,,-99.99,FreeWX 2.04,2013-07-23 01:01:00,
2013-07-22 21:11:00,72.7,62.8,29.79,North,-999,0.0,0.0,71,0.00,,,-99.99,FreeWX 2.04,2013-07-23 01:11:00,
2013-07-22 21:21:00,72.5,62.6,29.82,North,-999,0.0,0.0,71,0.00,,,-99.99,FreeWX 2.04,2013-07-23 01:21:00,
2013-07-22 21:31:00,72.3,62.8,29.82,North,-999,0.0,0.0,72,0.00,,,-99.99,FreeWX 2.04,2013-07-23 01:31:00,
2013-07-22 21:41:00,72.3,63.1,29.82,North,-999,0.0,0.0,73,0.00,,,-99.99,FreeWX 2.04,2013-07-23 01:41:00,
2013-07-22 21:51:00,72.3,63.5,29.82,North,-999,0.0,0.0,74,0.00,,,-99.99,FreeWX 2.04,2013-07-23 01:51:00,
2013-07-22 22:01:00,72.1,63.7,29.82,North,-999,0.0,2.7,75,0.00,,,-99.99,FreeWX 2.04,2013-07-23 02:01:00,
2013-07-22 22:11:00,72.1,63.7,29.82,North,-999,0.0,0.0,75,0.00,,,-99.99,FreeWX 2.04,2013-07-23 02:11:00,
2013-07-22 22:21:00,72.1,63.7,29.82,North,-999,0.0,2.7,75,0.00,,,-99.99,FreeWX 2.04,2013-07-23 02:21:00,
2013-07-22 22:31:00,72.1,63.7,29.82,North,-999,0.0,0.0,75,0.00,,,-99.99,FreeWX 2.04,2013-07-23 02:31:00,
2013-07-22 22:41:00,72.0,63.1,29.82,North,-999,0.0,0.0,74,0.00,,,-99.99,FreeWX 2.04,2013-07-23 02:41:00,
2013-07-22 22:51:00,72.0,63.1,29.82,North,-999,0.0,0.0,74,0.00,,,-99.99,FreeWX 2.04,2013-07-23 02:51:00,
2013-07-22 23:01:00,71.8,63.0,29.82,North,-999,0.0,3.1,74,0.00,,,-99.99,FreeWX 2.04,2013-07-23 03:01:00,
2013-07-22 23:11:00,71.6,62.8,29.82,North,-999,0.0,0.0,74,0.00,,,-99.99,FreeWX 2.04,2013-07-23 03:11:00,
2013-07-22 23:21:00,71.4,62.6,29.82,North,-999,0.0,0.0,74,0.00,,,-99.99,FreeWX 2.04,2013-07-23 03:21:00,
2013-07-22 23:31:00,71.4,63.1,29.82,North,-999,0.0,0.0,75,0.00,,,-99.99,FreeWX 2.04,2013-07-23 03:31:00,
2013-07-22 23:41:00,71.4,63.1,29.82,North,-999,0.0,0.0,75,0.00,,,-99.99,FreeWX 2.04,2013-07-23 03:41:00,
2013-07-22 23:51:00,71.2,63.0,29.82,North,-999,0.0,0.0,75,0.00,,,-99.99,FreeWX 2.04,2013-07-23 03:51:00,